DW4277 Weather Reports


Display with metric or nautical units.
time (UTC)temp
F
wind
direction
speed
MPH
gust
MPH
rain 1hr
in
rain 24hr
in
rain mn
in
humidity
%
barometer
mb
20260509073106 59 40 5.0 16.0 0.00 0.00 0.00 67 1017.8
20260509071551 58 53 5.0 16.0 0.00 0.00 0.00 70 1017.8
20260509070050 57 333 0.0 0.0 0.00 0.00 0.00 76 1017.8
20260509064546 56 333 3.0 17.0 0.00 0.00 0.00 76 1017.7
20260509063050 55 3 0.0 12.0 0.00 0.00 0.00 77 1017.7
20260509061545 55 2 6.0 16.0 0.00 0.00 0.00 78 1017.7
20260509060042 54 3 1.0 10.0 0.00 0.00 0.00 80 1017.5
20260509054538 54 3 3.0 12.0 0.00 0.00 0.00 82 1017.3
20260509053043 53 6 3.0 13.0 0.00 0.00 0.00 83 1017.3
20260509051535 52 40 0.0 6.0 0.00 0.00 0.00 82 1017.2
20260509050047 52 41 1.0 7.0 0.00 0.00 0.00 82 1017.1
20260509044534 52 42 2.0 14.0 0.00 0.00 0.00 82 1017.0
20260509043036 52 47 5.0 14.0 0.00 0.00 0.00 83 1017.0
20260509041525 52 44 5.0 13.0 0.00 0.00 0.00 84 1016.8
20260509040021 51 42 0.0 0.0 0.00 0.00 0.00 84 1016.8
20260509034518 51 44 0.0 0.0 0.00 0.00 0.00 84 1016.7
20260509033020 51 44 1.0 7.0 0.00 0.00 0.00 83 1016.8
20260509031514 52 44 0.0 5.0 0.00 0.00 0.00 83 1016.8
20260509030019 52 44 1.0 7.0 0.00 0.00 0.00 82 1016.8
20260509024511 52 44 0.0 9.0 0.00 0.00 0.00 82 1016.7
20260509023010 52 45 2.0 12.0 0.00 0.00 0.00 82 1016.6
20260509021508 53 46 0.0 10.0 0.00 0.00 0.00 82 1016.7
20260509020006 53 48 1.0 10.0 0.00 0.00 0.00 82 1016.6
20260509014504 53 52 2.0 13.0 0.00 0.00 0.00 81 1016.6
20260509013002 53 57 3.0 10.0 0.00 0.00 0.00 81 1016.6
20260509011605 53 61 5.0 11.0 0.00 0.00 0.00 81 1016.5
20260509010059 54 65 3.0 10.0 0.00 0.00 0.00 80 1016.5
20260509004600 54 67 6.0 10.0 0.00 0.00 0.00 80 1016.5
20260509003053 54 67 0.0 11.0 0.00 0.00 0.00 79 1016.6
20260509001553 55 60 6.0 14.0 0.00 0.00 0.00 78 1016.7
20260509000047 55 59 0.0 12.0 0.00 0.00 0.00 77 1016.7
20260508234544 56 64 0.0 13.0 0.00 0.00 0.00 76 1016.7
20260508233041 56 65 0.0 12.0 0.00 0.00 0.00 75 1016.7
20260508231545 57 66 0.0 6.0 0.00 0.00 0.00 74 1016.6
20260508230037 57 66 0.0 7.0 0.00 0.00 0.00 73 1016.5
20260508224558 58 66 0.0 9.0 0.00 0.00 0.00 73 1016.6
20260508223034 58 69 0.0 0.0 0.00 0.00 0.00 72 1016.6
20260508221541 58 69 0.0 0.0 0.00 0.00 0.00 72 1016.5
20260508220034 58 69 0.0 7.0 0.00 0.00 0.00 72 1016.5
20260508214538 58 79 0.0 10.0 0.00 0.00 0.00 72 1016.3
20260508213034 58 85 0.0 9.0 0.00 0.00 0.00 71 1016.2
20260508211528 59 84 0.0 10.0 0.00 0.00 0.00 70 1016.2
20260508210027 59 90 2.0 12.0 0.00 0.00 0.00 68 1016.2
20260508204526 60 84 5.0 12.0 0.00 0.01 0.00 65 1016.2
20260508203024 60 86 5.0 15.0 0.00 0.01 0.00 64 1016.0
20260508201523 61 69 4.0 24.0 0.00 0.01 0.00 61 1015.7
20260508200036 62 93 0.0 0.0 0.00 0.01 0.00 61 1015.6
20260508194523 62 93 0.0 0.0 0.00 0.04 0.00 57 1015.4
20260508193022 62 93 0.0 0.0 0.00 0.04 0.00 56 1015.3
20260508191521 63 93 0.0 0.0 0.00 0.04 0.00 55 1015.2
20260508190021 63 93 0.0 0.0 0.00 0.04 0.00 55 1015.0
20260508184526 64 93 0.0 0.0 0.00 0.05 0.00 53 1014.8
20260508183021 64 93 0.0 0.0 0.00 0.05 0.00 52 1014.7
20260508181521 65 93 0.0 0.0 0.00 0.05 0.00 51 1014.4
20260508180019 66 92 1.0 12.0 0.00 0.05 0.00 50 1014.2
20260508174522 66 90 0.0 7.0 0.00 0.09 0.00 49 1014.1
20260508173019 67 92 1.0 12.0 0.00 0.09 0.00 47 1013.9
20260508171529 68 84 0.0 9.0 0.00 0.09 0.00 47 1013.9
20260508170016 68 80 0.0 10.0 0.00 0.09 0.00 47 1013.8
20260508164521 69 55 3.0 14.0 0.00 0.10 0.00 45 1013.8
20260508163015 70 79 3.0 14.0 0.00 0.10 0.00 43 1013.8
20260508161527 69 97 0.0 0.0 0.00 0.10 0.00 45 1013.7
20260508160014 70 97 0.0 6.0 0.00 0.10 0.00 45 1013.6
20260508154515 70 96 2.0 10.0 0.00 0.10 0.00 45 1013.6
20260508153013 71 80 3.0 12.0 0.00 0.10 0.00 47 1013.6
20260508151513 71 235 0.0 5.0 0.00 0.10 0.00 45 1013.8
20260508150019 70 235 0.0 7.0 0.00 0.10 0.00 47 1013.8
20260508144524 70 82 5.0 15.0 0.00 0.10 0.00 47 1014.0
20260508143024 70 154 0.0 14.0 0.00 0.10 0.00 47 1014.1
20260508141519 70 23 0.0 16.0 0.00 0.10 0.00 45 1014.2
20260508140009 71 94 0.0 4.0 0.00 0.10 0.00 46 1014.2
20260508134509 70 94 5.0 12.0 0.00 0.10 0.00 46 1014.2
20260508133009 71 58 0.0 8.0 0.00 0.10 0.00 46 1014.3
20260508131508 71 77 3.0 8.0 0.00 0.10 0.00 46 1014.4
20260508130010 71 67 4.0 12.0 0.00 0.10 0.00 46 1014.6
20260508124504 71 71 0.0 7.0 0.00 0.10 0.00 46 1014.9
20260508123005 70 30 3.0 25.0 0.00 0.10 0.00 47 1014.7
20260508121505 70 42 4.0 22.0 0.00 0.10 0.00 46 1014.7
20260508120005 69 359 2.0 18.0 0.00 0.10 0.00 47 1014.8
20260508114504 70 12 3.0 14.0 0.00 0.10 0.00 47 1014.8
20260508113125 69 21 7.0 18.0 0.00 0.10 0.00 47 1014.9
20260508111556 68 344 0.0 11.0 0.00 0.10 0.00 49 1014.9
20260508110054 67 71 3.0 17.0 0.00 0.10 0.00 51 1015.0
20260508104558 68 5 1.0 15.0 0.00 0.10 0.00 50 1015.2
20260508103101 66 21 10.0 24.0 0.00 0.10 0.00 52 1015.5
20260508101550 66 354 10.0 27.0 0.00 0.10 0.00 53 1015.4
20260508100047 66 17 1.0 22.0 0.00 0.10 0.00 53 1015.6
20260508094549 66 24 3.0 16.0 0.00 0.10 0.00 54 1015.8
20260508093041 64 7 2.0 18.0 0.00 0.10 0.00 55 1015.8
20260508091539 64 345 0.0 21.0 0.00 0.10 0.00 57 1015.8
20260508090044 64 14 9.0 22.0 0.00 0.10 0.00 58 1015.9
20260508084532 63 34 9.0 18.0 0.00 0.10 0.00 58 1015.8
20260508083036 63 32 10.0 22.0 0.00 0.10 0.00 58 1015.8
20260508081525 62 342 0.0 15.0 0.00 0.10 0.00 60 1015.8
20260508080020 61 11 4.0 22.0 0.00 0.10 0.00 59 1015.8
20260508074519 61 2 1.0 19.0 0.00 0.10 0.00 64 1015.8